Content
SEND FEEDBACK

Daily
Averages
Monthly
Summary
Canada

WATERLOO WELLING, ONTARIO


Home > North America > Canada > Ontario
Elevation: 1031 feet     Latitude: 43 27N     Longitude: 080 23W

WEATHER
 
SELECT A DAY
Number of Records: 264,416;   Date Range: 1/1/95 - 10/20/14
 
SHARE

PRINT THIS DATA

[ ← Previous Day ]
WEATHER ALMANAC - OCTOBER 22, 2013
[ Next Day → ]
[ °C ]   °F
Weather ElementAverageHighLow
Temperature39.7 °F44.6 °F (5:00 pm)33 °F (8:00 am)
Dewpoint33.3 °F37.4 °F (1:00 am)26.6 °F (7:00 am)
Humidity77.7 %93 % (4:23 am)48 % (2:00 pm)
Barometer29.81 in29.85 in (10:00 pm)29.77 in (1:00 am)
Wind Speed13.6 mph21.9 mph (1:00 pm)
Wind Gust29.9 mph (1:00 pm)
Weather ElementAverage
Visibility8.3 mi
Wind DirectionWSW (245.8 °)

Weather ElementTotal
Precipitation---
Heating Degree Days26.2 (Base 65)
Averaged from 50 records on October 22, 2013
WEATHER CONDITIONS BREAKOUT
WIND DIRECTION BREAKOUT
WEATHER BY HOUR - OCTOBER 22, 2013
[ °C ]   °F
Local TimeTemperatureDewpointHumidityBarometerVisibilityWind DirectionWind SpeedGust SpeedPrecipitationEventsConditions
1:00 AM42.8 °F37.4 °F81 %29.77 in9.0 miWest (260°)8.1 mphMostly Cloudy
2:00 AM41.0 °F35.0 °F71 %29.78 in10.0 miWSW (250°)10.4 mphClear
2:00 AM41.0 °F35.6 °F81 %29.77 in9.0 miWSW (250°)9.2 mphPartly Cloudy
3:00 AM39.2 °F33.8 °F81 %29.78 in9.0 miSW (230°)11.5 mphClear
4:00 AM41.0 °F35.6 °F81 %29.78 in9.0 miSW (230°)16.1 mphOvercast
4:08 AM41.0 °F35.6 °F81 %29.78 in9.0 miWSW (240°)16.1 mphRainLight Rain
4:17 AM39.2 °F35.6 °F87 %29.78 in6.0 miWSW (250°)15.0 mph25.3 mphRainLight Rain
4:23 AM39.2 °F37.4 °F93 %29.78 in6.0 miWSW (240°)15.0 mph25.3 mphRainLight Rain
4:25 AM39.2 °F35.6 °F87 %29.78 in7.0 miWSW (240°)15.0 mph20.7 mphRainLight Rain
4:28 AM39.2 °F37.4 °F93 %29.78 in6.0 miWSW (240°)13.8 mphRainLight Rain
4:29 AM39.2 °F37.4 °F93 %29.78 in6.0 miWSW (250°)15.0 mphRainLight Rain
4:30 AM39.2 °F37.4 °F93 %29.78 in6.0 miWSW (240°)16.1 mphRainLight Rain
4:32 AM39.2 °F37.4 °F93 %29.78 in5.0 miWSW (240°)13.8 mphRainLight Rain
4:35 AM39.2 °F37.4 °F93 %29.78 in5.0 miWSW (240°)12.7 mph18.4 mphRainLight Rain
4:42 AM39.2 °F37.4 °F93 %29.78 in5.0 miWSW (240°)18.4 mphRainLight Rain
4:44 AM39.2 °F37.4 °F93 %29.79 in5.0 miWSW (250°)13.8 mph23.0 mphRainLight Rain
4:47 AM39.2 °F37.4 °F93 %29.79 in7.0 miWSW (250°)13.8 mph23.0 mphRainLight Rain
4:54 AM39.2 °F35.6 °F87 %29.79 in7.0 miWest (260°)16.1 mphRainLight Rain
4:57 AM39.2 °F37.4 °F93 %29.79 in7.0 miWest (260°)11.5 mph20.7 mphRainLight Rain
5:00 AM39.2 °F35.6 °F87 %29.79 in7.0 miWest (260°)13.8 mph20.7 mphRainLight Rain
5:08 AM39.2 °F35.6 °F87 %29.79 in9.0 miWSW (250°)15.0 mphOvercast
5:10 AM39.2 °F35.6 °F87 %29.79 in9.0 miWest (260°)16.1 mphOvercast
5:11 AM39.2 °F35.6 °F87 %29.79 in9.0 miWest (260°)16.1 mphOvercast
5:29 AM39.2 °F35.6 °F87 %29.80 in9.0 miWSW (250°)13.8 mph19.6 mphOvercast
5:30 AM39.2 °F35.6 °F87 %29.80 in9.0 miWest (260°)13.8 mph19.6 mphOvercast
5:33 AM39.2 °F35.6 °F87 %29.80 in9.0 miWSW (250°)13.8 mph19.6 mphOvercast
5:36 AM39.2 °F33.8 °F81 %29.80 in9.0 miWSW (250°)15.0 mph20.7 mphOvercast
6:00 AM37.4 °F28.4 °F70 %29.81 in9.0 miWest (260°)17.3 mph26.5 mphMostly Cloudy
7:00 AM35.6 °F26.6 °F70 %29.82 in9.0 miWSW (250°)12.7 mph18.4 mphScattered Clouds
8:00 AM33.0 °F28.0 °F74 %29.83 in10.0 miSW (230°)9.2 mphClear
8:00 AM33.8 °F28.4 °F81 %29.83 in9.0 miSW (230°)9.2 mphClear
9:00 AM35.6 °F28.4 °F75 %29.84 in9.0 miSW (230°)11.5 mphClear
10:00 AM39.2 °F28.4 °F65 %29.84 in9.0 miSW (230°)17.3 mph23.0 mphClear
11:00 AM39.2 °F28.4 °F65 %29.84 in9.0 miWSW (240°)16.1 mph24.2 mphOvercast
12:00 PM41.0 °F28.4 °F61 %29.84 in9.0 miWSW (250°)17.3 mph25.3 mphOvercast
1:00 PM41.0 °F28.4 °F61 %29.84 in9.0 miWSW (250°)21.9 mph29.9 mphOvercast
2:00 PM42.0 °F29.0 °F48 %29.83 in10.0 miWSW (240°)19.6 mphOvercast
2:00 PM42.8 °F28.4 °F57 %29.83 in9.0 miWSW (240°)19.6 mph27.6 mphOvercast
3:00 PM42.8 °F30.2 °F61 %29.82 in9.0 miWSW (240°)19.6 mph25.3 mphOvercast
4:00 PM42.8 °F30.2 °F61 %29.81 in9.0 miWSW (240°)19.6 mph28.8 mphOvercast
5:00 PM44.6 °F32.0 °F61 %29.81 in9.0 miWSW (240°)15.0 mph24.2 mphScattered Clouds
6:00 PM42.8 °F30.2 °F61 %29.82 in9.0 miWSW (240°)17.3 mph24.2 mphClear
7:00 PM41.0 °F30.2 °F65 %29.83 in9.0 miWSW (240°)11.5 mph17.3 mphOvercast
8:00 PM41.0 °F30.2 °F65 %29.84 in9.0 miWSW (250°)10.4 mphOvercast
8:00 PM42.0 °F30.0 °F51 %29.84 in10.0 miWSW (240°)9.2 mphOvercast
9:00 PM39.2 °F30.2 °F70 %29.84 in9.0 miSW (220°)5.8 mphScattered Clouds
10:00 PM39.2 °F32.0 °F75 %29.85 in9.0 miWSW (250°)3.5 mphOvercast
10:14 PM39.2 °F33.8 °F81 %29.85 in9.0 miWest (280°)6.9 mphRainLight Rain
10:31 PM41.0 °F33.8 °F76 %29.84 in9.0 miWSW (250°)6.9 mphOvercast
11:00 PM41.0 °F33.8 °F76 %29.84 in9.0 miWSW (250°)5.8 mphOvercast
Hourly data recorded from CYKF, located miles away from Waterloo Welling, Ontario







STORIES FROM OUR PARTNERS